Regional Weather Roundup
Issued by NWS Charleston, SC

Current Version | Previous Version | Graphics & Text | Print | Product List | Glossary On
Versions: 1 2 3 4 5 6 7 8 9 10 11 12 13 14 15 16 17 18 19 20 21 22 23 24 25 26 27 28 29 30 31 32 33 34 35 36 37 38 39 40 41 42 43 44 45 46 47 48 49 50
246 ASUS42 KCHS 240527 RWRCHS REGIONAL WEATHER ROUNDUP NATIONAL WEATHER SERVICE CHARLESTON SC 1200 AM EST TUE JAN 24 2017 NOTE: "FAIR" INDICATES FEW OR NO CLOUDS BELOW 12,000 FEET WITH NO SIGNIFICANT WEATHER AND/OR OBSTRUCTIONS TO VISIBILITY. NOT ALL STATIONS ARE QUALITY CONTROLLED. USE DATA WITH CAUTION... ESPECIALLY DEWPOINT OBSERVATIONS. SCZ027-030-031-034>040-042>050-240600- ...SOUTHEAST SOUTH CAROLINA... CITY SKY/WX TMP DP RH WIND PRES REMARKS N CHARLESTON PTCLDY 55 51 86 W8 29.52F WATERFRONT PRK N/A 57 54 89 NW6 29.52R MOUNT PLEASANT FAIR 55 52 88 W5 29.52F JOHNS ISLAND CLOUDY 57 52 82 W13 29.53S PINOPOLIS N/A 55 52 88 NW8 29.45R MONCKS CORNER FAIR 52 48 87 CALM 29.52F SUMMERVILLE CLOUDY 55 55 100 W10 29.54S BEAUFORT MCAS CLEAR 56 47 71 W12 29.57R BEAUFORT ARPT FAIR 54 46 76 W16 29.57R HILTON HEAD IS CLEAR 55 48 76 NW8G18 29.59R WALTERBORO CLEAR 54 48 82 W9 29.57R ALLENDALE FAIR 54 46 76 VRB5 29.58R ...SOUTHERN MIDLANDS AND PEE DEE... CITY SKY/WX TMP DP RH WIND PRES REMARKS GEORGETOWN FAIR 52 50 93 W8 29.52R KINGSTREE CLOUDY 52 48 87 NW5 29.51S ORANGEBURG PTCLDY 56 50 80 NW13 29.55R BARNWELL FAIR 54 48 82 W7 29.59R AIKEN FAIR 50 45 81 W8 29.61R MANNING MOCLDY 52 48 87 CALM 29.52S COLUMBIA MOCLDY 57 50 77 W12 29.54R SUMTER CLOUDY 54 49 83 W6 29.50R FLORENCE CLOUDY 52 48 86 NW9 29.51R MYRTLE BEACH CLOUDY 54 46 76 W10 29.51R N MYRTLE BEACH CLEAR 50 49 96 W6 29.47R $$ GAZ063-065-086>088-099>101-113>116-118-119-134>141-150-240600- ...SOUTHEAST GEORGIA... CITY SKY/WX TMP DP RH WIND PRES REMARKS SAVANNAH ARPT CLEAR 56 45 66 W14 29.60R HUNTER AAF CLEAR 55 50 83 W14 29.57R FORT STEWART CLEAR 56 45 67 W12 29.61R STATESBORO PTCLDY 55 47 76 NW12G18 29.63R SYLVANIA CLEAR N/A N/A N/A NW12G18 29.61S CLAXTON FAIR N/A N/A N/A W10G17 29.64R ...CSRA...CENTRAL AND FAR SOUTHEAST GEORGIA... CITY SKY/WX TMP DP RH WIND PRES REMARKS THOMSON CLEAR 54 47 77 NW7 29.66R AUGUSTA-BUSH NOT AVBL AUGUSTA-DANIEL CLEAR 54 42 64 W12G18 29.59R SWAINSBORO FAIR 52 45 76 NW13 29.65R VIDALIA CLEAR 55 48 76 NW15G22 29.66R EASTMAN FAIR 56 39 54 NW7 29.73R HAZLEHURST FAIR 57 49 76 NW8 29.69R ALMA CLEAR 57 47 69 NW13G21 29.68R WAYCROSS CLEAR 59 52 76 NW12 29.69R JESUP FAIR 57 45 62 NW15G22 29.66R BAXLEY FAIR 57 50 77 NW17G25 29.68R BRUNSWICK CLEAR 55 50 82 W10G18 29.65R SAINT SIMONS CLEAR 56 48 74 W9G20 29.63R $$ SCZ027-028-034-036>038-045-046-048>050-GAZ119-141-240600- ...LAKE AND SUPPLEMENTAL COASTAL OBSERVATIONS... STATION/POSITION TIME TEMP WIND PRES WAVE SWELL AIR SEA DIR/SP/G HT/PER HT/PER/DIR (UTC) (F) (DEG/KT/KT) (MB) (FT/S) (FT/S/D) WINYAH BAY 0445 54 290/ 5 998.0R LAKE MURRAY 0450 56 270/ 11/ 13 1000.0R ACE BASIN NERRS 0445 55 270/ 3 1001.0R FORT PULASKI 0500 57 59 300/ 17/ 20 1002.0 SAPELO ISLAND 0500 57 280/ 11 1003.0 $$ ANZ835-935-AMZ111-154-330-350-352-354-370-450-454-472-240600- ...C-MAN AND BUOY OBSERVATIONS... STATION/POSITION TIME TEMP WIND PRES WAVE SWELL AIR SEA DIR/SP/G HT/PER HT/PER/DIR (UTC) (F) (DEG/KT/KT) (MB) (FT/S) (FT/S/D) BUOY 41004 0450 61 68 300/ 25/ 29 998.2R 8/ 8 5/200/ 8 BUOY 41008 0450 59 60 270/ 19/ 21 1002.0R 4/ 4 FOLLY BEACH CMAN 0500 57 280/ 6/ 8 1000.2R CAPERS NEARSHORE 0408 56 56 280/ 12/ 14 999.3R FRIPP NEARSHORE 0508 57 58 300/ 16/ 21 1000.7S STATION/POSITION TIME TEMP WIND PRES WAVE SWELL AIR SEA DIR/SP/G HT/PER HT/PER/DIR (UTC) (F) (DEG/KT/KT) (MB) (FT/S) (FT/S/D) 5E ST. MARYS GA 0500 62 N/A 2/13 2/ 80/13 FRYING PAN BUOY 0510 60 69 280/ 21/ 27 996.5 BUOY 41025 0450 58 75 300/ 27/ 31 991.1R 8/11 7/130/11 CAPE LOOKOUT NC 0500 54 290/ 18/ 25 993.5R BUOY 41002 0450 67 71 280/ 23/ 33 994.9R 15/10 10/240/10 BUOY 41010 NOT AVBL ST AUGUSTINE FL 0500 58 63 280/ 7/ 9 1006.0R $$

USA.gov is the U.S. government's official web portal to all federal, state and local government web resources and services.